This is the latest recevied weather packets stored in our database for station/object N5COP-13. If no packets are shown the sender has not sent any weather packets the latest 10 day(s).
| Time | Temp. | Humidity | Pressure | Rain* | Wind** | Luminosity | Snow |
|---|---|---|---|---|---|---|---|
| 1778009849 | 17.78° C | 40% | 1010.9 hPa | 0 mm | - | 646 W/m² | - |
| 1778009547 | 17.78° C | 39% | 1010.7 hPa | 0 mm | - | 646 W/m² | - |
| 1778009245 | 18.33° C | 39% | 1010.9 hPa | 0 mm | - | 681 W/m² | - |
| 1778008942 | 18.33° C | 40% | 1010.8 hPa | 0 mm | - | 591 W/m² | - |
| 1778008640 | 17.78° C | 41% | 1011.1 hPa | 0 mm | - | 680 W/m² | - |
| 1778008339 | 17.78° C | 40% | 1010.7 hPa | 0 mm | - | 653 W/m² | - |
| 1778008034 | 18.33° C | 40% | 1011.2 hPa | 0 mm | - | 442 W/m² | - |
| 1778007734 | 17.78° C | 41% | 1011.3 hPa | 0 mm | - | 840 W/m² | - |
| 1778007431 | 17.22° C | 42% | 1011.4 hPa | 0 mm | - | 889 W/m² | - |
| 1778007127 | 16.67° C | 42% | 1011.6 hPa | 0 mm | - | 772 W/m² | - |
| 1778006823 | 16.67° C | 43% | 1011.4 hPa | 0 mm | - | 447 W/m² | - |
| 1778006521 | 16.11° C | 42% | 1011.2 hPa | 0 mm | - | 629 W/m² | - |
| 1778006217 | 16.67° C | 42% | 1011.5 hPa | 0 mm | - | 388 W/m² | - |
| 1778005915 | 16.67° C | 42% | 1011.6 hPa | 0 mm | - | 381 W/m² | - |
| 1778005611 | 17.22° C | 42% | 1011.4 hPa | 0 mm | - | 447 W/m² | - |
| 1778005309 | 16.67° C | 43% | 1011.4 hPa | 0 mm | - | 617 W/m² | - |
| 1778005004 | 16.67° C | 44% | 1011.5 hPa | 0 mm | - | 456 W/m² | - |
| 1778004702 | 16.67° C | 44% | 1011.5 hPa | 0 mm | - | 537 W/m² | - |
| 1778004398 | 16.67° C | 44% | 1011.7 hPa | 0 mm | - | 624 W/m² | - |
| 1778004095 | 16.67° C | 44% | 1011.5 hPa | 0 mm | - | 480 W/m² | - |
| 1778003791 | 16.67° C | 43% | 1011.7 hPa | 0 mm | - | 493 W/m² | - |
| 1778003482 | 16.67° C | 43% | 1012 hPa | 0 mm | - | 621 W/m² | - |
| 1778003179 | 16.67° C | 42% | 1012 hPa | 0 mm | - | 487 W/m² | - |
| 1778002875 | 16.67° C | 43% | 1012 hPa | 0 mm | - | 855 W/m² | - |
| 1778002572 | 16.67° C | 42% | 1012.1 hPa | 0 mm | - | 590 W/m² | - |
* Rain latest hour (hover to see other rain measurements)
** Current wind speed in m/s (hover to see current wind gust speed)